This is the latest recevied weather packets stored in our database for station/object KB1WCR. If no packets are shown the sender has not sent any weather packets the latest 10 day(s).
| Time | Temp. | Humidity | Pressure | Rain* | Wind** | Luminosity | Snow |
|---|---|---|---|---|---|---|---|
| 1787876173 | 21.11° C | 89% | 1015.6 hPa | 0 mm | - | 0 W/m² | - |
| 1787875869 | 20.56° C | 89% | 1015.6 hPa | 0 mm | - | 0 W/m² | - |
| 1787875568 | 20.56° C | 89% | 1015.6 hPa | 0 mm | - | 0 W/m² | - |
| 1787875262 | 21.11° C | 91% | 1015.6 hPa | 0 mm | - | 0 W/m² | - |
| 1787874961 | 21.11° C | 91% | 1015.2 hPa | 0 mm | - | 0 W/m² | - |
| 1787874656 | 21.11° C | 91% | 1015.4 hPa | 0 mm | - | 0 W/m² | - |
| 1787874360 | 21.11° C | 90% | 1015.4 hPa | 0 mm | - | 0 W/m² | - |
| 1787874049 | 21.11° C | 90% | 1015.3 hPa | 0 mm | - | 0 W/m² | - |
| 1787873749 | 21.11° C | 91% | 1015.3 hPa | 0 mm | - | 1 W/m² | - |
| 1787873444 | 21.11° C | 92% | 1015.3 hPa | 0 mm | - | 1 W/m² | - |
| 1787873139 | 21.11° C | 90% | 1015.1 hPa | 0 mm | - | 3 W/m² | - |
| 1787872838 | 21.67° C | 90% | 1015.2 hPa | 0 mm | - | 4 W/m² | - |
| 1787872534 | 21.67° C | 90% | 1015 hPa | 0 mm | - | 5 W/m² | - |
| 1787872236 | 21.67° C | 90% | 1015.1 hPa | 0 mm | - | 7 W/m² | - |
| 1787871928 | 21.67° C | 90% | 1015 hPa | 0 mm | - | 9 W/m² | - |
| 1787871624 | 22.22° C | 90% | 1015.2 hPa | 0 mm | - | 12 W/m² | - |
| 1787871320 | 22.22° C | 89% | 1015.1 hPa | 0 mm | - | 17 W/m² | - |
| 1787871015 | 22.22° C | 89% | 1015.2 hPa | 0 mm | - | 22 W/m² | - |
| 1787870713 | 22.22° C | 88% | 1015.2 hPa | 0 mm | - | 27 W/m² | - |
| 1787870408 | 22.78° C | 88% | 1015.4 hPa | 0 mm | - | 30 W/m² | - |
| 1787870099 | 22.78° C | 87% | 1015.3 hPa | 0 mm | - | 30 W/m² | - |
| 1787869796 | 22.78° C | 87% | 1015.4 hPa | 0 mm | - | 32 W/m² | - |
| 1787869491 | 22.78° C | 86% | 1015.3 hPa | 0 mm | - | 35 W/m² | - |
| 1787869184 | 23.33° C | 85% | 1015.3 hPa | 0 mm | - | 39 W/m² | - |
| 1787868879 | 23.33° C | 84% | 1015.4 hPa | 0 mm | - | 46 W/m² | - |
* Rain latest hour (hover to see other rain measurements)
** Current wind speed in m/s (hover to see current wind gust speed)